{"data":{"norad_id":48280,"epoch":"2026-05-25T03:16:08.139648Z","epoch_age_seconds":66344,"freshness":"FRESH","line1":"1 48280U 21036E   26145.13620532  .00002087  00000+0  79009-4 0  9999","line2":"2 48280  53.1594 105.6309 0001280  67.1903 292.9233 15.31690874279745","mean_motion":15.31690874,"eccentricity":0.000128,"inclination_deg":53.1594,"raan_deg":105.6309,"arg_perigee_deg":67.1903,"mean_anomaly_deg":292.9233,"bstar":7.9009e-5,"rev_number":27974,"period_min":94.013748103065,"perigee_km":469.8905397543,"apogee_km":471.64385922937,"semimajor_km":6848.9041994918,"source":"CELESTRAK","updated_at":"2026-05-25T13:38:16.672580Z"}}